Slayton, MN

3:40 AM CDT on June 27, 2017 (GMT -0500)
Slayton

Weather History for KDVP - February, 2013

Change the Weather History Date:

Monday, February 11, 2013

  Actual Average (KOTG) Record (KOTG)
Temperature  
Mean Temperature 20 °F -  
Max Temperature 24 °F 27 °F 56 °F (1977)
Min Temperature 15 °F 12 °F -24 °F (1988)
Degree Days  
Heating Degree Days 46    
Moisture  
Dew Point 17 °F    
Average Humidity 89    
Maximum Humidity 97    
Minimum Humidity 79    
Precipitation  
Precipitation 0.00 in - - ()
Sea Level Pressure  
Sea Level Pressure 29.90 in    
Wind  
Wind Speed 25 mph (WNW)    
Max Wind Speed 34 mph    
Max Gust Speed 43 mph    
Visibility 5 miles    
Events Snow    
Averages and records for this station are not official NWS values.
T = Trace of Precipitation, MM = Missing Value Source: NWS Daily Summary

Daily Weather History Graph

Daily Weather History Graph

Search for Another Location

Airport or City:

Trip Planner

Search our weather history database for the weather conditions in past years. The results will help you decide how hot, cold, wet, or windy it might be!

Date:

Astronomy

Feb. 11, 2013 Rise Set
Actual Time 7:27 AM CST 5:47 PM CST
Civil Twilight 6:57 AM CST 6:17 PM CST
Nautical Twilight 6:23 AM CST 6:51 PM CST
Astronomical Twilight 5:50 AM CST 7:25 PM CST
Moon 7:47 AM CST (2/11) 7:51 PM CST (2/11)
Length of Visible Light 11h 20m
Length of Day
10h 20m
Waxing Crescent, 3% of the Moon is Illuminated
Feb 11
Waxing Crescent
Feb 17
First Quarter
Feb 25
Full
Mar 4
Last Quarter
Mar 11
New

Hourly Weather History & Observations

Time (CST) Temp. Windchill Dew Point Humidity Pressure Visibility Wind Dir Wind Speed Gust Speed Precip Events Conditions
12:15 AM 24.8 °F 8.1 °F 23.7 °F 96% 29.54 in 1.2 mi NW 28.8 mph 36.8 mph N/A Snow Light Snow
12:35 AM 24.6 °F 7.9 °F 23.9 °F 97% 29.55 in 0.8 mi NW 28.8 mph 35.7 mph N/A Snow Snow
12:54 AM 24.6 °F 7.6 °F 23.9 °F 97% 29.57 in 0.8 mi NW 29.9 mph 35.7 mph N/A Snow Light Snow
1:15 AM 24.4 °F 7.1 °F 23.7 °F 97% 29.58 in 1.0 mi NW 31.1 mph 39.1 mph N/A Snow Light Snow
1:35 AM 24.4 °F 6.8 °F 23.5 °F 96% 29.59 in 1.0 mi NW 32.2 mph 39.1 mph N/A Snow Light Snow
1:54 AM 24.3 °F 6.1 °F 23.2 °F 96% 29.60 in 0.8 mi NW 34.5 mph 42.6 mph N/A Snow Light Snow
2:15 AM 24.3 °F 6.9 °F 23.0 °F 95% 29.61 in 0.8 mi NW 31.1 mph 39.1 mph N/A Snow Snow
2:35 AM 23.9 °F 6.1 °F 23.0 °F 96% 29.63 in 1.0 mi NW 32.2 mph 38.0 mph N/A Snow Light Snow
2:55 AM 23.7 °F 6.4 °F 22.6 °F 96% 29.65 in 1.2 mi WNW 29.9 mph 34.5 mph N/A Snow Light Snow
3:15 AM 23.4 °F 5.4 °F 22.1 °F 95% 29.67 in 1.2 mi NW 32.2 mph 35.7 mph N/A Snow Light Snow
3:35 AM 23.0 °F 5.1 °F 21.7 °F 95% 29.68 in 1.5 mi NW 31.1 mph 40.3 mph N/A Snow Light Snow
3:55 AM 22.6 °F 4.4 °F 21.2 °F 94% 29.69 in 1.0 mi NW 32.2 mph 41.4 mph N/A Snow Light Snow
4:15 AM 22.1 °F 3.6 °F 20.3 °F 93% 29.71 in 1.0 mi NW 32.2 mph 41.4 mph N/A Snow Light Snow
4:35 AM 21.7 °F 4.0 °F 20.1 °F 93% 29.73 in 3.0 mi WNW 28.8 mph 33.4 mph N/A   Overcast
4:55 AM 21.6 °F 3.7 °F 20.1 °F 94% 29.74 in 2.0 mi WNW 28.8 mph 34.5 mph N/A   Overcast
5:14 AM 21.6 °F 4.7 °F 20.1 °F 94% 29.76 in 3.0 mi WNW 25.3 mph - N/A   Overcast
5:35 AM 20.5 °F 2.6 °F 18.7 °F 93% 29.76 in 3.0 mi WNW 27.6 mph 32.2 mph N/A   Overcast
5:55 AM 19.9 °F 2.2 °F 17.8 °F 91% 29.78 in 3.0 mi WNW 26.5 mph - N/A   Mist
6:15 AM 20.1 °F 2.4 °F 18.0 °F 91% 29.79 in 5.0 mi WNW 26.5 mph 32.2 mph N/A   Mostly Cloudy
6:35 AM 20.1 °F 1.8 °F 17.6 °F 90% 29.81 in 3.0 mi WNW 28.8 mph 33.4 mph N/A   Overcast
6:55 AM 20.1 °F 2.4 °F 17.4 °F 89% 29.83 in 5.0 mi WNW 26.5 mph - N/A   Overcast
7:15 AM 20.1 °F 1.8 °F 17.4 °F 89% 29.83 in 4.0 mi WNW 28.8 mph 34.5 mph N/A   Overcast
7:35 AM 20.3 °F 3.0 °F 17.6 °F 89% 29.85 in 5.0 mi WNW 25.3 mph 29.9 mph N/A   Overcast
7:55 AM 20.1 °F 2.4 °F 17.6 °F 90% 29.86 in 3.0 mi NW 26.5 mph 32.2 mph N/A   Overcast
8:15 AM 20.3 °F 3.3 °F 17.6 °F 89% 29.87 in 5.0 mi WNW 24.2 mph - N/A   Overcast
8:34 AM 20.3 °F 2.6 °F 17.4 °F 89% 29.88 in 3.0 mi WNW 26.5 mph 32.2 mph N/A   Overcast
8:55 AM 20.3 °F 2.0 °F 17.6 °F 89% 29.89 in 1.2 mi WNW 28.8 mph 32.2 mph N/A Snow Light Snow
9:15 AM 20.3 °F 3.7 °F 17.2 °F 88% 29.90 in 3.0 mi WNW 23.0 mph - N/A   Overcast
9:35 AM 20.3 °F 2.3 °F 17.2 °F 88% 29.92 in 2.5 mi WNW 27.6 mph 33.4 mph N/A   Overcast
9:55 AM 20.3 °F 2.6 °F 17.2 °F 88% 29.93 in 1.8 mi WNW 26.5 mph 33.4 mph N/A   Overcast
10:16 AM 20.7 °F 3.1 °F 16.9 °F 85% 29.94 in 5.0 mi WNW 26.5 mph 29.9 mph N/A   Mostly Cloudy
10:35 AM 20.8 °F 2.8 °F 17.2 °F 86% 29.95 in 2.5 mi WNW 28.8 mph 35.7 mph N/A Snow Light Snow
10:55 AM 20.8 °F 4.0 °F 17.2 °F 86% 29.96 in 2.5 mi NW 24.2 mph 31.1 mph N/A   Overcast
11:15 AM 20.8 °F 5.9 °F 17.6 °F 87% 29.97 in 2.5 mi WNW 18.4 mph - N/A Snow Light Snow
11:35 AM 21.0 °F 3.9 °F 17.4 °F 86% 29.97 in 3.0 mi WNW 25.3 mph 28.8 mph N/A Snow Light Snow
11:54 AM 20.7 °F 3.1 °F 16.7 °F 85% 29.97 in 4.0 mi WNW 26.5 mph - N/A   Overcast
12:15 PM 21.0 °F 3.9 °F 16.5 °F 83% 29.98 in 4.0 mi WNW 25.3 mph - N/A   Haze
12:35 PM 20.8 °F 5.1 °F 16.9 °F 85% 29.98 in 5.0 mi WNW 20.7 mph - N/A Snow Light Snow
12:55 PM 20.3 °F 3.3 °F 16.3 °F 85% 29.98 in 3.0 mi WNW 24.2 mph - N/A Snow Light Snow
1:15 PM 21.0 °F 3.6 °F 16.7 °F 83% 29.98 in 1.2 mi WNW 26.5 mph 31.1 mph N/A Snow Light Snow
1:36 PM 20.8 °F 3.7 °F 16.9 °F 85% 29.98 in 4.0 mi WNW 25.3 mph - N/A Snow Light Snow
1:55 PM 21.6 °F 4.7 °F 16.3 °F 80% 29.99 in 4.0 mi WNW 25.3 mph 29.9 mph N/A   Haze
2:15 PM 21.2 °F 4.9 °F 17.1 °F 84% 29.99 in 5.0 mi WNW 23.0 mph - N/A Snow Light Snow
2:36 PM 21.7 °F 4.9 °F 16.2 °F 79% 29.99 in 3.0 mi WNW 25.3 mph 32.2 mph N/A   Haze
2:56 PM 20.8 °F 6.4 °F 16.5 °F 83% 30.00 in 10.0 mi WNW 17.3 mph - N/A   Mostly Cloudy
3:14 PM 21.4 °F 5.8 °F 17.4 °F 85% 30.00 in 5.0 mi WNW 20.7 mph - N/A   Overcast
3:35 PM 21.0 °F 5.7 °F 17.1 °F 85% 30.01 in 5.0 mi West 19.6 mph 24.2 mph N/A   Overcast
3:55 PM 20.3 °F 4.4 °F 15.4 °F 81% 30.02 in 7.0 mi WNW 20.7 mph 27.6 mph N/A   Mostly Cloudy
4:55 PM 19.0 °F 4.0 °F 15.6 °F 87% 30.03 in 7.0 mi WNW 17.3 mph - N/A   Overcast
5:15 PM 18.1 °F 3.4 °F 14.4 °F 85% 30.02 in 10.0 mi WNW 16.1 mph - N/A   Overcast
5:35 PM 17.2 °F 5.2 °F 14.0 °F 87% 30.03 in 10.0 mi WNW 10.4 mph - N/A   Mostly Cloudy
5:55 PM 16.7 °F 3.2 °F 12.4 °F 83% 30.03 in 10.0 mi WNW 12.7 mph - N/A   Scattered Clouds
6:15 PM 16.5 °F 2.4 °F 12.4 °F 84% 30.03 in 10.0 mi West 13.8 mph - N/A   Clear
6:34 PM 16.2 °F 4.7 °F 12.6 °F 86% 30.04 in 10.0 mi West 9.2 mph - N/A   Clear
6:55 PM 15.8 °F 2.7 °F 12.6 °F 87% 30.04 in 10.0 mi West 11.5 mph - N/A   Mostly Cloudy
7:15 PM 15.8 °F 6.1 °F 12.6 °F 87% 30.05 in 10.0 mi West 6.9 mph - N/A   Overcast
7:35 PM 15.8 °F 4.2 °F 12.7 °F 88% 30.05 in 10.0 mi West 9.2 mph - N/A   Overcast
7:55 PM 16.5 °F 3.0 °F 12.9 °F 86% 30.05 in 10.0 mi WNW 12.7 mph - N/A   Overcast
8:15 PM 16.7 °F 5.3 °F 13.1 °F 86% 30.05 in 10.0 mi WNW 9.2 mph - N/A   Overcast
8:35 PM 16.9 °F 6.4 °F 13.5 °F 86% 30.05 in 10.0 mi West 8.1 mph - N/A   Overcast
8:55 PM 17.1 °F 8.7 °F 13.8 °F 87% 30.05 in 10.0 mi West 5.8 mph - N/A   Overcast
9:15 PM 17.2 °F 8.9 °F 14.0 °F 87% 30.05 in 10.0 mi West 5.8 mph - N/A   Overcast
9:35 PM 16.9 °F 6.4 °F 14.0 °F 88% 30.05 in 10.0 mi WSW 8.1 mph - N/A   Overcast
9:54 PM 17.1 °F 8.7 °F 14.4 °F 89% 30.05 in 10.0 mi WSW 5.8 mph - N/A   Overcast
10:15 PM 17.2 °F 8.9 °F 14.7 °F 90% 30.05 in 10.0 mi WSW 5.8 mph - N/A   Overcast
10:35 PM 17.4 °F 10.4 °F 14.7 °F 89% 30.04 in 10.0 mi WSW 4.6 mph - N/A   Overcast
10:55 PM 17.6 °F 10.7 °F 14.9 °F 89% 30.05 in 10.0 mi WSW 4.6 mph - N/A   Overcast
11:15 PM 18.1 °F 10.0 °F 15.4 °F 89% 30.04 in 10.0 mi WSW 5.8 mph - N/A   Overcast
11:35 PM 18.3 °F 10.2 °F 15.8 °F 90% 30.04 in 10.0 mi SW 5.8 mph - N/A   Overcast
11:55 PM 18.7 °F 10.6 °F 16.2 °F 90% 30.04 in 10.0 mi WSW 5.8 mph - N/A   Overcast